Location: Unspecified
(0.0000°N, 0.0000°E)
Time: 19:38:17
(UTC+00:00)

NOSS 3-1 (A) - Pass Details

Date: 27 April 2019
Orbit: 778 x 1434 km, 63.4° (Epoch: 13 May)

Event Time Altitude Azimuth Distance (km) Brightness Sun altitude
Rises 03:13:57 0° 354° (N) 4,370 7.0 -39.6°
Reaches altitude 10° 03:17:02 10° 2° (N) 3,455 6.5 -38.8°
Maximum altitude 03:24:55 39° 67° (ENE) 2,023 5.4 -36.9°
Drops below altitude 10° 03:32:53 10° 133° (SE) 3,504 6.7 -35.0°
Sets 03:36:00 0° 140° (SE) 4,439 7.2 -34.3°
